Torna al catalogo

STARLINK-11160

AttivoComunicazioniVLEO
NORAD 60125·PAYLOAD·🇺🇸 United States

Lanciato Jun 24, 2024 da Vandenberg Space Force Base

Loading…

Prossimi Passaggi (prossime 24 ore)

TLE

AggiornatoSource: CelesTrak SupGP

Epoca: Sep 14, 2026, 21:39 UTC

1 60125C 24118N   26257.90256944  .00011391  00000+0  93792-4 0  2576
2 60125  53.1574   8.3691 0000973  77.2910 268.6392 15.69713529    18

Traccia STARLINK-11160 in tempo reale con AllMySat

Download on the App Store